PulseSat

PulseSat

GSAT0213 (GALILEO 17)

Last updated on Dec. 9, 2018, 12:08 a.m. UTC

1 41861U 16069C   18341.82026271  .00000068  00000-0  00000+0 0  9990
2 41861  54.5881 177.3458 0001281 267.1457  92.8990  1.70473545 12806
UTC
Height (km)
Latitude
Longitude
Inclination
Orbital Period

Next 30 passes for location: Hong Kong

Rise time Rise Azimuth (degrees) Set time Set Azimuth (degrees) Duration Max altitude (degrees)

No matching passes for this satellites

PulseSat

PulseSat is the new satellites software and hardware trackering solution by Pulsely.
Satellite Two Line Element Set source: US Air Force Space Command

Download PulseSat for iOS
© 2017 Pulsely Limited